Weather History for KLOU - October, 2013

Change the Weather History Date:

Monday, October 28, 2013

  Actual Average Record
Temperature  
Mean Temperature 52 °F 55 °F  
Max Temperature 66 °F 65 °F 81 °F (1991)
Min Temperature 38 °F 45 °F 24 °F (1976)
Degree Days  
Heating Degree Days 13 11  
Month to date heating degree days 243 206  
Since 1 July heating degree days 253 242  
Cooling Degree Days 0 0  
Month to date cooling degree days 42 30  
Year to date cooling degree days 1446 1443  
Growing Degree Days 2 (Base 50)    
Moisture  
Dew Point 38 °F    
Average Humidity 63    
Maximum Humidity 92    
Minimum Humidity 34    
Precipitation  
Precipitation 0.00 in 0.10 in 0.31 in (1962)
Month to date precipitation 7.76 2.93  
Year to date precipitation 48.21 37.63  
Sea Level Pressure  
Sea Level Pressure 30.20 in    
Wind  
Wind Speed 1 mph (NW)    
Max Wind Speed 6 mph    
Max Gust Speed 9 mph    
Visibility 10 miles    
Events      
T = Trace of Precipitation, MM = Missing Value Source: NWS Daily Summary

Daily Weather History Graph

Daily Weather History Graph

Search for Another Location

Airport or City:

Trip Planner

Search our weather history database for the weather conditions in past years. The results will help you decide how hot, cold, wet, or windy it might be!

Date:

Astronomy

Oct. 28, 2013 Rise Set
Actual Time 8:04 AM EDT 6:47 PM EDT
Civil Twilight 7:37 AM EDT 7:14 PM EDT
Nautical Twilight 7:06 AM EDT 7:45 PM EDT
Astronomical Twilight 6:35 AM EDT 8:16 PM EDT
Moon 2:02 AM EDT (10/28) 3:24 PM EDT (10/28)
Length of Visible Light 11h 37m
Length of Day
10h 42m
Waning Crescent, 34% of the Moon is Illuminated
Oct 28
Waning Crescent
Nov 3
New
Nov 10
First Quarter
Nov 17
Full
Nov 25
Last Quarter

Hourly Weather History & Observations

Time (EDT) Temp. Windchill Dew Point Humidity Pressure Visibility Wind Dir Wind Speed Gust Speed Precip Events Conditions
12:53 AM 41.0 °F - 37.0 °F 86% 30.11 in 10.0 mi Calm Calm - N/A   Clear
1:53 AM 39.9 °F 37.8 °F 37.0 °F 89% 30.11 in 10.0 mi NW 3.5 mph - N/A   Scattered Clouds
2:53 AM 42.1 °F - 37.0 °F 82% 30.12 in 10.0 mi Calm Calm - N/A   Mostly Cloudy
3:53 AM 43.0 °F - 39.0 °F 86% 30.13 in 10.0 mi Calm Calm - N/A   Overcast
4:53 AM 43.0 °F - 37.0 °F 80% 30.14 in 10.0 mi Calm Calm - N/A   Clear
5:53 AM 41.0 °F - 37.9 °F 89% 30.14 in 10.0 mi Calm Calm - N/A   Mostly Cloudy
6:53 AM 39.0 °F - 37.0 °F 93% 30.16 in 10.0 mi Calm Calm - N/A   Partly Cloudy
7:53 AM 39.9 °F - 37.9 °F 93% 30.19 in 10.0 mi Calm Calm - N/A   Partly Cloudy
8:53 AM 41.0 °F 39.0 °F 37.9 °F 89% 30.22 in 9.0 mi NNW 3.5 mph - N/A   Mostly Cloudy
9:53 AM 44.1 °F - 39.0 °F 82% 30.24 in 10.0 mi Calm Calm - N/A   Overcast
10:53 AM 48.0 °F - 39.0 °F 71% 30.25 in 10.0 mi Calm Calm - N/A   Overcast
11:53 AM 57.0 °F - 37.9 °F 49% 30.24 in 10.0 mi ENE 4.6 mph - N/A   Clear
12:53 PM 60.1 °F - 34.0 °F 38% 30.24 in 10.0 mi Calm Calm - N/A   Clear
1:53 PM 62.1 °F - 36.0 °F 38% 30.21 in 10.0 mi Calm Calm - N/A   Clear
2:53 PM 63.0 °F - 37.0 °F 38% 30.19 in 10.0 mi Variable 3.5 mph - N/A   Clear
3:53 PM 64.9 °F - 37.0 °F 36% 30.19 in 10.0 mi West 4.6 mph - N/A   Clear
4:53 PM 64.9 °F - 36.0 °F 34% 30.21 in 10.0 mi Calm Calm - N/A   Clear
5:53 PM 63.0 °F - 37.0 °F 38% 30.22 in 10.0 mi West 4.6 mph - N/A   Clear
6:53 PM 57.9 °F - 37.9 °F 47% 30.23 in 10.0 mi Calm Calm - N/A   Clear
7:53 PM 54.0 °F - 39.9 °F 59% 30.25 in 10.0 mi Calm Calm - N/A   Clear
8:53 PM 48.9 °F - 39.0 °F 69% 30.26 in 10.0 mi Calm Calm - N/A   Clear
9:53 PM 48.0 °F - 39.9 °F 74% 30.27 in 10.0 mi Calm Calm - N/A   Clear
10:53 PM 45.0 °F - 39.9 °F 82% 30.29 in 10.0 mi Calm Calm - N/A   Clear
11:53 PM 44.1 °F - 37.9 °F 79% 30.30 in 10.0 mi Calm Calm - N/A   Clear